[[{"header":{"parameterUnit":"m.s-1","parameterCategory":1,"la1":30.2991,"la2":30.254,"lo1":-89.0895,"lo2":-89.0444,"dy":0.0017,"dx":0.0017,"nx":28,"ny":28,"refTime":"2025-12-27T09:00:00:Z","depth":0,"parameterNumber":2,"parameterNumberName":"U-component_of_WINDS"},"data":[0,0,0,0,0,0,0,0,0,0,0,0,0,0,0,0,0,0,0,0,0,0,0,0,0,0,0,0,0,0,0,0,0,0,0,0,0,0,0,0,0,0,0,0,0,0,0,0,0,0,0,0,0,0,0,0,0,0,0.6678,0.6679,0,0.6726,0.6726,0.6727,0.6751,0.6751,0.6751,0.6751,0.6799,0.6801,0.6802,0,0,0,0,0,0,0,0,0,0,0,0,0,0.6608,0.6609,0.6678,0.6679,0.6679,0.6726,0.6726,0.6727,0.6751,0.6751,0.6751,0.6751,0.6799,0.6801,0.6802,0,0,0,0,0,0,0,0,0,0,0,0,0,0.6645,0.661,0.6678,0.6697,0.6699,0.6726,0.6726,0.6727,0.6751,0.6751,0.6751,0.6751,0.6799,0.68,0.6802,0.6814,0,0,0.6808,0.6809,0,0,0,0,0,0,0,0,0.6643,0.6648,0.6693,0.6695,0.6698,0.6732,0.672,0.6756,0.6751,0.6731,0.6751,0.6751,0.6777,0.6781,0.679,0.6816,0.6819,0.6808,0.681,0.681,0.6811,0,0,0,0,0,0,0,0.6641,0.6646,0.6697,0.6694,0.6697,0.6703,0.6708,0.6727,0.6753,0.6733,0.6735,0.674,0.6778,0.6788,0.6791,0.6819,0.6808,0.681,0.6811,0.6812,0.6859,0.6859,0,0,0,0,0,0,0.6635,0.6644,0.6696,0.6698,0.667,0.6704,0.671,0.6721,0.6753,0.6758,0.674,0.6741,0.6784,0.6789,0.6793,0.6809,0.681,0.6812,0.6813,0.6859,0.6859,0.6859,0,0,0,0,0,0,0.6633,0.6639,0.6694,0.6672,0.6679,0.6705,0.6718,0.6722,0.6732,0.6759,0.6764,0.6744,0.6785,0.679,0.6809,0.6811,0.6813,0.6815,0.6859,0.6859,0.6859,0.6842,0,0,0,0,0,0,0.6631,0.6639,0.6643,0.6671,0.668,0.6709,0.6718,0.6723,0.6735,0.6737,0.6764,0.6769,0.6785,0.6806,0.6811,0.6814,0.6816,0.6858,0.6859,0.6859,0.6842,0.6842,0.6841,0,0,0,0,0,0.6629,0.6636,0.6643,0.6649,0.6686,0.6709,0.6714,0.6732,0.6735,0.674,0.6757,0.6768,0.681,0.6808,0.6813,0.6817,0.6858,0.6859,0.6859,0.6843,0.6842,0.6841,0,0,0,0,0,0,0.6607,0.664,0.6648,0.6666,0.6684,0.6713,0.6719,0.673,0.6748,0.6749,0.6771,0.6777,0.6794,0.6807,0.6804,0.6831,0.6835,0.6837,0.6821,0.682,0.682,0.6816,0.6818,0,0,0,0,0,0.6605,0.662,0.6648,0.6661,0.667,0.6693,0.6703,0.6716,0.6736,0.6744,0.6763,0.6782,0.68,0.6811,0.6828,0.6844,0.6851,0.685,0.6849,0.6848,0.6849,0.6859,0.6859,0.6859,0.6859,0.6859,0,0,0.6599,0.6619,0.6628,0.6657,0.6673,0.6688,0.6699,0.6715,0.6727,0.6746,0.6765,0.678,0.6803,0.682,0.6829,0.6832,0.6851,0.6848,0.6848,0.6849,0.686,0.686,0.6859,0.686,0.686,0.6859,0,0,0.6598,0.6614,0.6627,0.6643,0.6667,0.6682,0.6685,0.6712,0.6723,0.6742,0.6757,0.6771,0.6801,0.6817,0.6829,0.6834,0.6845,0.6839,0.6835,0.6844,0.6844,0.6844,0.6847,0.6847,0.684,0.684,0.684,0,0.6588,0.6613,0.6632,0.6647,0.666,0.6678,0.6691,0.6706,0.6734,0.6743,0.6746,0.6784,0.68,0.6822,0.6823,0.6832,0.6837,0.6836,0.6843,0.6843,0.6843,0.6846,0.6847,0.6839,0.6839,0.6839,0.6839,0,0.66,0.6616,0.6624,0.6651,0.6665,0.6679,0.67,0.6712,0.6723,0.6738,0.6758,0.6779,0.6801,0.6807,0.6818,0.6831,0.6832,0.6838,0.6844,0.6842,0.6845,0.6846,0.6838,0.6838,0.6838,0.6839,0,0,0.6586,0.6625,0.6627,0.664,0.6668,0.6681,0.6696,0.6718,0.6728,0.6747,0.676,0.6785,0.6792,0.6805,0.6818,0.6827,0.683,0.6832,0.6833,0.6832,0.6845,0.6841,0.6841,0.6837,0.6837,0.6837,0.6844,0,0.6589,0.6617,0.6635,0.6656,0.6672,0.669,0.6703,0.6722,0.6737,0.6752,0.6768,0.6786,0.6793,0.6801,0.681,0.6828,0.6833,0.6827,0.685,0.6851,0.6844,0.6843,0.6838,0.6843,0.6845,0.6845,0.6845,0,0.6596,0.6615,0.6638,0.6665,0.6672,0.6684,0.6706,0.672,0.6742,0.6752,0.6767,0.6781,0.6798,0.6801,0.6825,0.682,0.6831,0.6841,0.6841,0.6845,0.6848,0.6846,0.6844,0.6845,0.6847,0.6847,0.6847,0,0.6585,0.6616,0.6634,0.6644,0.6676,0.6684,0.6697,0.6719,0.6731,0.675,0.6759,0.6779,0.6791,0.6807,0.6825,0.6826,0.6847,0.6852,0.6856,0.6856,0.686,0.686,0.6861,0.6866,0.6866,0.6866,0.6866,0,0.6586,0.66,0.6629,0.664,0.6656,0.6677,0.6691,0.6706,0.6725,0.674,0.6756,0.6769,0.6793,0.6809,0.6823,0.6841,0.6846,0.6855,0.6859,0.6854,0.6853,0.6861,0.6861,0.6866,0.6866,0.6866,0.6866,0,0.6576,0.6597,0.6617,0.6646,0.6653,0.6664,0.6688,0.6699,0.6715,0.6733,0.6738,0.6763,0.6782,0.6802,0.6829,0.6839,0.6856,0.6861,0.6849,0.6851,0.6854,0.6854,0.6861,0.6863,0.6866,0.6866,0.6866,0,0.6576,0.6587,0.6617,0.6628,0.6641,0.6658,0.6671,0.6692,0.6705,0.673,0.6739,0.676,0.6778,0.6808,0.6828,0.6848,0.6854,0.6855,0.6858,0.6852,0.6855,0.6854,0.6856,0.6855,0.6855,0.6854,0.6854,0,0.6574,0.6584,0.6602,0.6624,0.6639,0.6656,0.6675,0.6683,0.6707,0.6721,0.6741,0.6755,0.6782,0.6803,0.6826,0.684,0.6851,0.6853,0.6856,0.6851,0.6844,0.6848,0.6847,0.6853,0.6853,0.6854,0.6854,0.6854,0.657,0.658,0.6603,0.6623,0.6639,0.6656,0.6669,0.6686,0.6703,0.6727,0.6738,0.6759,0.6781,0.6813,0.6826,0.6843,0.6846,0.6849,0.685,0.685,0.6849,0.684,0.6847,0.6847,0.6847,0.6847,0.6847,0,0.6569,0.6585,0.6603,0.6628,0.6644,0.6654,0.6675,0.6687,0.6705,0.6724,0.6742,0.6765,0.6785,0.6807,0.6828,0.6837,0.6843,0.6842,0.6842,0.6845,0.6845,0.6841,0.6837,0.6837,0.6837,0.6837,0.6837,0.6837,0.6571,0.6589,0.6602,0.6629,0.6644,0.6665,0.6676,0.6692,0.6708,0.6734,0.675,0.6765,0.6785,0.6808,0.6827,0.6833,0.684,0.6838,0.6845,0.6844,0.6845,0.6846,0.6842,0.6839,0.6839,0.6844,0.6844,0.6844]},{"header":{"parameterUnit":"m.s-1","parameterCategory":1,"la1":30.2991,"la2":30.254,"lo1":-89.0895,"lo2":-89.0444,"dy":0.0017,"dx":0.0017,"nx":28,"ny":28,"refTime":"2025-12-27T09:00:00:Z","depth":0,"parameterNumber":3,"parameterNumberName":"V-component_of_WINDS"},"data":[0,0,0,0,0,0,0,0,0,0,0,0,0,0,0,0,0,0,0,0,0,0,0,0,0,0,0,0,0,0,0,0,0,0,0,0,0,0,0,0,0,0,0,0,0,0,0,0,0,0,0,0,0,0,0,0,0,0,2.4404,2.4405,0,2.4447,2.4447,2.4448,2.4462,2.4461,2.4461,2.4461,2.4502,2.4504,2.4505,0,0,0,0,0,0,0,0,0,0,0,0,0,2.4332,2.4333,2.4404,2.4405,2.4405,2.4447,2.4447,2.4448,2.4462,2.4461,2.4461,2.4461,2.4502,2.4503,2.4505,0,0,0,0,0,0,0,0,0,0,0,0,0,2.4368,2.4334,2.4404,2.4417,2.4419,2.4447,2.4447,2.4448,2.4462,2.4461,2.4461,2.4461,2.4501,2.4503,2.4505,2.4522,0,0,2.4511,2.4512,0,0,0,0,0,0,0,0,2.4366,2.4371,2.4415,2.4416,2.4418,2.4449,2.4437,2.4473,2.4462,2.4445,2.4461,2.4461,2.4485,2.4488,2.4496,2.4524,2.4526,2.4511,2.4512,2.4513,2.4514,0,0,0,0,0,0,0,2.4363,2.4369,2.4421,2.4415,2.4417,2.442,2.4425,2.4444,2.4466,2.4447,2.4448,2.4453,2.4485,2.4494,2.4497,2.4527,2.4511,2.4513,2.4514,2.4515,2.4572,2.4572,0,0,0,0,0,0,2.4359,2.4367,2.442,2.4422,2.4391,2.4422,2.4427,2.4439,2.4466,2.447,2.4453,2.4453,2.4491,2.4495,2.4499,2.4522,2.4513,2.4515,2.4516,2.4571,2.4572,2.4572,0,0,0,0,0,0,2.4357,2.4364,2.4418,2.4395,2.4402,2.4423,2.4437,2.444,2.4449,2.4471,2.4474,2.4458,2.4491,2.4496,2.4517,2.4523,2.4516,2.4517,2.4571,2.4571,2.4572,2.4567,0,0,0,0,0,0,2.4355,2.4363,2.437,2.4395,2.4403,2.4436,2.4437,2.4441,2.4453,2.4454,2.4477,2.448,2.4491,2.4514,2.4519,2.4526,2.4519,2.457,2.4571,2.4572,2.4567,2.4567,2.4568,0,0,0,0,0,2.4353,2.4366,2.4371,2.4377,2.4413,2.4436,2.4441,2.4454,2.4453,2.4461,2.4474,2.4479,2.4522,2.4516,2.4521,2.4529,2.457,2.4571,2.4572,2.4566,2.4567,2.4568,0,0,0,0,0,0,2.4341,2.437,2.4375,2.4397,2.4414,2.4438,2.4448,2.4454,2.4471,2.4471,2.4487,2.4492,2.4511,2.4522,2.4515,2.4548,2.4546,2.4548,2.454,2.4541,2.4541,2.4539,2.4521,0,0,0,0,0,2.4341,2.4359,2.4382,2.44,2.4408,2.4426,2.4437,2.4446,2.4464,2.4471,2.4486,2.4503,2.452,2.4531,2.4548,2.4568,2.4573,2.4576,2.4576,2.4577,2.4579,2.4591,2.4592,2.4575,2.4575,2.4575,0,0,2.4341,2.4359,2.4369,2.4398,2.4412,2.4429,2.4432,2.445,2.4463,2.4473,2.4495,2.4506,2.4525,2.4546,2.4556,2.4556,2.4584,2.4578,2.4578,2.458,2.4592,2.4593,2.4595,2.4575,2.4575,2.4575,0,0,2.4351,2.4366,2.4383,2.4397,2.4419,2.4431,2.4435,2.4459,2.4467,2.4489,2.4497,2.4512,2.4541,2.4555,2.4565,2.458,2.4586,2.4585,2.4588,2.46,2.4601,2.4603,2.4609,2.4611,2.4587,2.4587,2.4587,0,2.4348,2.4375,2.439,2.4408,2.442,2.4431,2.4448,2.4461,2.4487,2.4495,2.4494,2.4532,2.4545,2.457,2.4574,2.4582,2.4587,2.4583,2.46,2.4602,2.4603,2.4609,2.4611,2.4586,2.4586,2.4586,2.4587,0,2.4371,2.439,2.44,2.4426,2.444,2.4457,2.4474,2.4485,2.4493,2.4505,2.4527,2.4544,2.4564,2.4571,2.4578,2.4596,2.4596,2.4597,2.4596,2.4604,2.461,2.4613,2.4586,2.4586,2.4586,2.4586,0,0,2.4375,2.4409,2.4413,2.4425,2.4451,2.4465,2.4482,2.4503,2.4513,2.453,2.4546,2.457,2.4572,2.4584,2.4593,2.4603,2.4615,2.4604,2.4604,2.4606,2.4637,2.4636,2.4638,2.4618,2.4619,2.4619,2.4636,0,2.4388,2.4421,2.4435,2.4461,2.4478,2.4489,2.4504,2.4521,2.4533,2.4549,2.4561,2.4579,2.458,2.4587,2.4598,2.4611,2.4621,2.461,2.4632,2.4633,2.4628,2.4641,2.4641,2.4655,2.4638,2.4638,2.4638,0,2.4409,2.4427,2.4456,2.4479,2.4487,2.4501,2.4522,2.4537,2.4556,2.4563,2.4577,2.4586,2.4604,2.4601,2.4626,2.4618,2.4628,2.4636,2.4637,2.464,2.4637,2.4646,2.466,2.4663,2.4642,2.4642,2.4642,0,2.441,2.4442,2.4463,2.4473,2.4501,2.451,2.4522,2.4541,2.4553,2.4571,2.4579,2.4598,2.4609,2.4623,2.4636,2.4633,2.4661,2.4659,2.4668,2.4667,2.4674,2.4673,2.4691,2.4678,2.4678,2.4678,2.4678,0,2.4424,2.4441,2.4464,2.4477,2.4496,2.4512,2.453,2.4542,2.4559,2.4575,2.4584,2.4598,2.4615,2.4631,2.4641,2.4661,2.4665,2.4672,2.4675,2.4672,2.4671,2.4679,2.4678,2.4679,2.4679,2.4679,2.4679,0,2.4428,2.4445,2.4469,2.4493,2.45,2.4513,2.4534,2.4547,2.4559,2.4578,2.4584,2.4603,2.4622,2.4637,2.4661,2.4668,2.469,2.4692,2.4684,2.4685,2.4694,2.4693,2.4717,2.4722,2.4706,2.4706,2.4706,0,2.4437,2.445,2.4477,2.4488,2.4501,2.4519,2.4531,2.4547,2.4559,2.4582,2.4593,2.4613,2.463,2.466,2.4676,2.4695,2.4698,2.4705,2.4701,2.4698,2.4699,2.4699,2.4701,2.4706,2.4706,2.4706,2.4707,0,2.445,2.4458,2.4476,2.4498,2.4513,2.453,2.4548,2.4556,2.4574,2.4588,2.4609,2.4622,2.4648,2.4668,2.4689,2.47,2.4707,2.4708,2.4711,2.4709,2.4704,2.4707,2.4686,2.4707,2.4707,2.4707,2.4707,2.4707,2.4457,2.447,2.4491,2.4512,2.4527,2.4543,2.4557,2.4571,2.4589,2.4612,2.4619,2.4641,2.4659,2.4688,2.47,2.4716,2.4716,2.4721,2.4722,2.4723,2.4723,2.47,2.472,2.472,2.472,2.472,2.472,0,2.4472,2.4486,2.4505,2.453,2.4546,2.4551,2.457,2.4583,2.4602,2.462,2.4637,2.4661,2.468,2.4697,2.4718,2.4728,2.4731,2.4732,2.4732,2.4735,2.4722,2.4717,2.4729,2.4729,2.4729,2.4729,2.4729,2.4729,2.4482,2.4504,2.4514,2.4544,2.4558,2.458,2.4591,2.4606,2.462,2.4646,2.4663,2.4674,2.4692,2.4713,2.4731,2.4736,2.4743,2.4744,2.4749,2.4737,2.4736,2.4735,2.4731,2.4745,2.4745,2.4761,2.4762,2.4762]}]]